Location: Abyssinia Baptist Church
(32.7840°N, 96.7578°W)
Time: 00:45:44
(UTC+00:00)

H-2A R/B (2) - Pass Details

Date: 08 December 2021
Orbit: 446 x 34385 km, 28.8° (Epoch: 28 January)

Event Time Altitude Azimuth Distance (km) Brightness Sun altitude
Exits shadow 12:38:35 - 253° (WSW) 2,889 4.5 -8.3°
Reaches altitude 10° 12:39:36 10° 250° (WSW) 2,471 4.2 -8.1°
Maximum altitude 12:44:43 69° 167° (SSE) 1,781 4.0 -7.1°
Drops below altitude 10° 20:24:22 10° 140° (SE) 29,920 10.4 26.9°
Sets 21:21:04 0° 139° (SE) 22,540 9.5 19.5°
